Toms River, NJ

4:55 AM EDT on October 21, 2019 (GMT -0400)
Miller

Weather History for KMJX - August, 2019

Change the Weather History Date:

Friday, August 2, 2019

  Actual Average Record
Temperature  
Mean Temperature 74 °F -  
Max Temperature 84 °F 85 °F 98 °F (1983)
Min Temperature 64 °F 63 °F 45 °F (1966)
Cooling Degree Days 9    
Growing Degree Days 24 (Base 50)    
Moisture  
Dew Point 66 °F    
Average Humidity 59    
Maximum Humidity 82    
Minimum Humidity 51    
Precipitation  
Precipitation 0.00 in - - ()
Sea Level Pressure  
Sea Level Pressure 30.13 in    
Wind  
Wind Speed 2 mph (SE)    
Max Wind Speed 9 mph    
Max Gust Speed -    
Visibility 9 miles    
Events      
Averages and records for this station are not official NWS values.
T = Trace of Precipitation, MM = Missing Value Source: NWS Daily Summary

Daily Weather History Graph

Daily Weather History Graph

Search for Another Location

Airport or City:

Astronomy

Aug. 02, 2019 Rise Set
Actual Time 5:56 AM EDT 8:09 PM EDT
Civil Twilight 5:26 AM EDT 8:39 PM EDT
Nautical Twilight 4:49 AM EDT 9:16 PM EDT
Astronomical Twilight 4:08 AM EDT 9:57 PM EDT
Moon 7:31 AM EDT (8/2) 9:36 PM EDT (8/2)
Length of Visible Light 15h 13m
Length of Day
14h 13m
Waxing Crescent, 4% of the Moon is Illuminated
Aug 2
Waxing Crescent
Aug 7
First Quarter
Aug 15
Full
Aug 23
Last Quarter
Aug 30
New

Hourly Weather History & Observations

Time (EDT) Temp. Heat Index Dew Point Humidity Pressure Visibility Wind Dir Wind Speed Gust Speed Precip Events Conditions
12:56 AM 64.9 °F - - N/A% 30.13 in 10.0 mi Calm Calm - N/A   Clear
1:56 AM 64.0 °F - - N/A% 30.12 in 10.0 mi Calm Calm - N/A   Clear
2:56 AM 64.0 °F - - N/A% 30.12 in 10.0 mi Calm Calm - N/A   Scattered Clouds
3:56 AM 64.0 °F - - N/A% 30.12 in 10.0 mi Calm Calm - N/A   Mostly Cloudy
4:56 AM - - - N/A% 30.11 in 10.0 mi Calm Calm - N/A   Mostly Cloudy
5:56 AM 64.9 °F - - N/A% 30.13 in 10.0 mi Calm Calm - N/A   Mostly Cloudy
6:56 AM 66.0 °F - - N/A% 30.14 in 10.0 mi Calm Calm - N/A   Scattered Clouds
7:56 AM 70.0 °F - - N/A% 30.15 in 10.0 mi ENE 3.5 mph - N/A   Scattered Clouds
8:56 AM 75.0 °F - - N/A% 30.14 in 10.0 mi ENE 3.5 mph - N/A   Clear
9:56 AM 81.0 °F 84.9 °F 71.1 °F 72% 30.16 in 10.0 mi SE 4.6 mph - N/A   Clear
10:56 AM 81.0 °F 83.0 °F 66.0 °F 60% 30.16 in 10.0 mi Variable 4.6 mph - N/A   Clear
11:52 AM 84.2 °F 86.6 °F 66.2 °F 55% 30.15 in 4.0 mi SE 6.9 mph - N/A   Haze
11:56 AM 84.0 °F 86.3 °F 66.0 °F 55% 30.16 in 4.0 mi SE 5.8 mph - N/A   Haze
12:21 PM 84.2 °F 85.6 °F 64.4 °F 51% 30.14 in 1.0 mi ESE 5.8 mph - N/A   Haze
12:28 PM 82.4 °F 83.9 °F 64.4 °F 54% 30.14 in 1.2 mi SE 5.8 mph - N/A   Haze
12:32 PM 82.4 °F 83.9 °F 64.4 °F 54% 30.14 in 10.0 mi ESE 6.9 mph - N/A   Partly Cloudy
1:56 PM 84.0 °F 85.4 °F 64.0 °F 51% 30.14 in 10.0 mi SSE 5.8 mph - N/A   Clear
2:56 PM 84.0 °F 85.8 °F 64.9 °F 53% 30.13 in 10.0 mi South 9.2 mph - N/A   Unknown
3:56 PM 84.0 °F 86.3 °F 66.0 °F 55% 30.12 in 10.0 mi SE 9.2 mph - N/A   Clear
4:56 PM 82.0 °F 84.5 °F 66.9 °F 60% 30.11 in 10.0 mi South 8.1 mph - N/A   Clear
5:56 PM 82.0 °F 84.9 °F 68.0 °F 62% 30.12 in 10.0 mi South 8.1 mph - N/A   Clear
6:56 PM 80.1 °F 82.3 °F 66.9 °F 64% 30.12 in 10.0 mi SSE 5.8 mph - N/A   Clear
7:56 PM 75.9 °F - 70.0 °F 82% 30.11 in 10.0 mi Calm Calm - N/A   Clear
8:56 PM 71.1 °F - - N/A% 30.12 in 10.0 mi Calm Calm - N/A   Clear
9:56 PM 68.0 °F - - N/A% 30.13 in 10.0 mi Calm Calm - N/A   Clear
10:56 PM 66.0 °F - - N/A% 30.13 in 10.0 mi Calm Calm - N/A   Clear
11:56 PM 64.9 °F - - N/A% 30.12 in 10.0 mi Calm Calm - N/A   Clear